Regional Weather Roundup
Issued by NWS Cleveland, OH

Home | Current Version | Previous Version | Text Only | Print | Product List | Glossary Off
Versions: 1 2 3 4 5 6 7 8 9 10 11 12 13 14 15 16 17 18 19 20 21 22 23 24 25 26 27 28 29 30 31 32 33 34 35 36 37 38 39 40 41 42 43 44 45 46 47 48 49 50

000
ASUS41 KCLE 270402
RWRCLE
OHIO REGIONAL WEATHER ROUNDUP
NATIONAL WEATHER SERVICE CLEVELAND, OH
1200 AM EDT TUE JUN 27 2017

NOTE: "FAIR" INDICATES FEW OR NO CLOUDS BELOW 12,000 FEET WITH NO
SIGNIFICANT WEATHER AND/OR OBSTRUCTIONS TO VISIBILITY.

OHZ001>008-015>018-024>027-034-035-043-044-270500-
   NORTHWEST OHIO

CITY           SKY/WX    TMP DP  RH WIND       PRES   REMARKS
DEFIANCE       PTCLDY    55  52  89 CALM      30.03S
FINDLAY        CLOUDY    57  50  77 W9        30.02R
TOLEDO EXPRESS CLEAR     54  54 100 W7        30.01S
TOLEDO EXEC    MOCLDY    57  53  86 W8        30.01S
LIMA           MOCLDY    56  52  86 W9        30.04S
$$

OHZ009>014-019>023-028>033-038-089-270500-
   NORTHEAST OHIO

CITY           SKY/WX    TMP DP  RH WIND       PRES   REMARKS
CLE-HOPKINS    LGT RAIN  57  51  80 S6        30.02F
CLE-LAKEFRONT  CLOUDY    58  49  72 S10       29.99F
CUY CO. ARPT   NOT AVBL
LORAIN-ELYRIA  CLOUDY    54  48  80 SW8       30.01F
ASHTABULA      LGT RAIN  55  52  89 CALM      30.04R
AKRON-CANTON   MOCLDY    57  48  72 W3        30.03S
WOOSTER        LGT RAIN  55  51  86 S5        30.03F
MANSFIELD      CLOUDY    54  50  86 S7        30.03F
YOUNGSTOWN     MOCLDY    54  51  90 NW3       30.02R
$$

OHZ042-051>053-060>062-070>072-077>081-270500-
  SOUTHWEST OHIO

CITY           SKY/WX    TMP DP  RH WIND       PRES   REMARKS
CINC-COVINGTON CLOUDY    64  49  57 NW10      30.09R
CINC-LUNKEN    CLOUDY    66  49  54 W7        30.08R
HAMILTON       PTCLDY    58  51  78 NW3       30.09R
DAYTON         CLOUDY    55  50  83 SW7       30.07S
WRIGHT-PAT AFB NOT AVBL
DAYTON GENERAL PTCLDY    58  49  72 N3        30.07S
WILMINGTON     CLEAR     57  51  80 N7        30.07R
$$

OHZ036-037-039>041-045>050-054>059-063>069-073>076-082>088-270500-
  CENTRAL AND SOUTHEAST OHIO

CITY           SKY/WX    TMP DP  RH WIND       PRES   REMARKS
COLUMBUS       PTCLDY    58  54  86 NW6       30.05R
OSU AIRPORT    MOCLDY    57  50  77 NW3       30.06R
BOLTON FIELD   MOCLDY    57  51  79 CALM      30.06S
RICKENBACK AFB CLEAR     57  54  87 NW8       30.06R
NEWARK         MOCLDY    56  51  84 W5        30.04S
MARION         MOCLDY    57  50  77 S7        30.04F
LANCASTER      PTCLDY    55  53  93 W3        30.04F
ZANESVILLE     MOCLDY    56  53  90 S3        30.04F
NEW PHILLY     NOT AVBL
$$



USA.gov is the U.S. government's official web portal to all federal, state and local government web resources and services.